EW9135 Weather Reports


time (UTC)temp
C
wind
direction
speed
KPH
gust
KPH
rain 1hr
cm
rain 24hr
cm
rain mn
cm
humidity
%
barometer
mb
20260903071603 16 229 0.0 0.0 0.00 0.00 0.00 36 1023.1
20260903071056 16 222 0.0 0.0 0.00 0.00 0.00 36 1023.1
20260903070551 16 215 0.0 0.0 0.00 0.00 0.00 35 1023.5
20260903070048 16 273 0.0 0.0 0.00 0.00 0.00 35 1023.1
20260903065539 16 284 0.0 0.0 0.00 0.00 0.00 35 1023.1
20260903065033 17 255 0.0 0.0 0.00 0.00 0.00 35 1023.5
20260903064529 17 341 0.0 0.0 0.00 0.00 0.00 34 1023.5
20260903064021 17 306 0.0 0.0 0.00 0.00 0.00 35 1023.5
20260903063516 17 255 0.0 0.0 0.00 0.00 0.00 33 1023.1
20260903063011 17 271 0.0 0.0 0.00 0.00 0.00 33 1023.1
20260903062504 17 270 0.0 0.0 0.00 0.00 0.00 33 1023.1
20260903061958 17 175 0.0 0.0 0.00 0.00 0.00 33 1023.5
20260903061454 17 248 0.0 0.0 0.00 0.00 0.00 32 1023.1
20260903060947 17 241 0.0 0.0 0.00 0.00 0.00 32 1023.5
20260903060441 17 290 0.0 1.6 0.00 0.00 0.00 32 1023.1
20260903055937 17 130 0.0 1.6 0.00 0.00 0.00 32 1023.5
20260903055429 17 210 0.0 0.0 0.00 0.00 0.00 32 1023.1
20260903054924 17 328 0.0 0.0 0.00 0.00 0.00 32 1023.5
20260903054419 17 229 0.0 0.0 0.00 0.00 0.00 31 1023.5
20260903053912 17 203 0.0 0.0 0.00 0.00 0.00 31 1023.5
20260903053406 17 241 0.0 0.0 0.00 0.00 0.00 31 1023.5
20260903052902 17 2 0.0 0.0 0.00 0.00 0.00 31 1023.5
20260903052356 17 187 0.0 0.0 0.00 0.00 0.00 31 1023.5
20260903051850 18 195 0.0 0.0 0.00 0.00 0.00 30 1023.5
20260903051344 18 220 0.0 0.0 0.00 0.00 0.00 32 1023.5
20260903050837 18 259 0.0 0.0 0.00 0.00 0.00 32 1023.5
20260903050331 18 312 0.0 0.0 0.00 0.00 0.00 32 1023.5
20260903045827 18 296 0.0 0.0 0.00 0.00 0.00 32 1023.5
20260903045320 19 239 0.0 0.0 0.00 0.00 0.00 32 1023.5
20260903044814 19 323 0.0 0.0 0.00 0.00 0.00 32 1023.5
20260903044804 19 221 0.0 0.0 0.00 0.00 0.00 32 1023.5
20260903044410 19 304 0.0 0.0 0.00 0.00 0.00 32 1023.5
20260903043257 19 256 0.0 0.0 0.00 0.00 0.00 31 1023.1
20260903042753 19 199 0.0 0.0 0.00 0.00 0.00 31 1023.5
20260903042747 20 318 0.0 0.0 0.00 0.00 0.00 31 1023.1
20260903041739 20 252 0.0 0.0 0.00 0.00 0.00 31 1023.1
20260903041235 20 250 0.0 0.0 0.00 0.00 0.00 31 1023.1
20260903040728 20 38 0.0 0.0 0.00 0.00 0.00 31 1023.1
20260903040722 20 218 0.0 0.0 0.00 0.00 0.00 31 1023.1
20260903035717 20 200 0.0 0.0 0.00 0.00 0.00 30 1023.1
20260903035210 20 243 0.0 0.0 0.00 0.00 0.00 30 1023.1
20260903034705 20 219 0.0 0.0 0.00 0.00 0.00 30 1023.1
20260903034200 20 220 0.0 0.0 0.00 0.00 0.00 30 1023.1
20260903033653 20 222 0.0 0.0 0.00 0.00 0.00 30 1022.8
20260903033147 20 319 0.0 0.0 0.00 0.00 0.00 30 1022.4
20260903032643 20 221 0.0 0.0 0.00 0.00 0.00 29 1022.4
20260903032136 21 183 0.0 0.0 0.00 0.00 0.00 29 1022.4
20260903031630 21 14 0.0 0.0 0.00 0.00 0.00 28 1022.4
20260903031125 21 245 0.0 1.6 0.00 0.00 0.00 28 1022.4
20260903030619 21 309 0.0 1.6 0.00 0.00 0.00 27 1022.4
20260903030610 21 277 0.0 1.6 0.00 0.00 0.00 25 1022.4
20260903030215 21 234 0.0 0.0 0.00 0.00 0.00 25 1022.1
20260903025101 21 301 0.0 1.6 0.00 0.00 0.00 25 1022.4
20260903024555 21 241 0.0 1.6 0.00 0.00 0.00 24 1022.4
20260903024053 21 331 0.0 1.6 0.00 0.00 0.00 24 1022.4
20260903024045 22 293 0.0 1.6 0.00 0.00 0.00 23 1022.4
20260903023037 22 231 0.0 1.6 0.00 0.00 0.00 22 1022.4
20260903022533 22 348 0.0 1.6 0.00 0.00 0.00 21 1022.1
20260903022026 22 249 0.0 1.6 0.00 0.00 0.00 19 1022.1
20260903021520 22 345 0.0 1.6 0.00 0.00 0.00 19 1022.1
20260903021016 22 196 0.0 1.6 0.00 0.00 0.00 19 1022.1
20260903020508 22 290 0.0 1.6 0.00 0.00 0.00 19 1022.4
20260903020004 22 226 0.0 0.0 0.00 0.00 0.00 19 1022.1
20260903015458 23 311 0.0 0.0 0.00 0.00 0.00 20 1022.4
20260903014951 23 221 0.0 0.0 0.00 0.00 0.00 20 1022.1
20260903014943 23 260 0.0 1.6 0.00 0.00 0.00 22 1022.1
20260903014546 23 215 0.0 1.6 0.00 0.00 0.00 20 1022.4
20260903013434 23 294 0.0 1.6 0.00 0.00 0.00 22 1022.1
20260903012928 24 225 0.0 4.8 0.00 0.00 0.00 22 1021.8
20260903012423 24 289 0.0 4.8 0.00 0.00 0.00 22 1022.1
20260903011916 24 176 0.0 0.0 0.00 0.00 0.00 22 1022.1
20260903011411 25 215 0.0 3.2 0.00 0.00 0.00 21 1022.1
20260903010906 25 249 0.0 3.2 0.00 0.00 0.00 20 1022.1
20260903010400 25 280 0.0 1.6 0.00 0.00 0.00 19 1021.8
20260903010354 25 154 0.0 1.6 0.00 0.00 0.00 19 1022.1
20260903005348 25 243 0.0 0.0 0.00 0.00 0.00 18 1022.1
20260903004842 25 281 0.0 0.0 0.00 0.00 0.00 20 1021.8
20260903004338 25 213 0.0 0.0 0.00 0.00 0.00 20 1022.1
20260903003831 25 145 0.0 0.0 0.00 0.00 0.00 20 1022.1
20260903003325 25 222 0.0 3.2 0.00 0.00 0.00 20 1022.1
20260903003320 25 170 0.0 3.2 0.00 0.00 0.00 20 1022.1
20260903002315 25 142 0.0 1.6 0.00 0.00 0.00 20 1021.8
20260903002308 25 38 0.0 1.6 0.00 0.00 0.00 20 1022.4
20260903001301 25 174 0.0 0.0 0.00 0.00 0.00 20 1022.1
20260903000757 24 188 0.0 0.0 0.00 0.00 0.00 20 1022.1
20260903000249 24 96 0.0 0.0 0.00 0.00 0.00 21 1022.1
20260902235744 24 141 0.0 0.0 0.00 0.00 0.00 21 1022.4
20260902235239 24 174 0.0 0.0 0.00 0.00 0.00 20 1022.4
20260902234733 24 199 0.0 0.0 0.00 0.00 0.00 21 1022.4
20260902234226 24 159 0.0 0.0 0.00 0.00 0.00 21 1022.4
20260902234216 24 186 0.0 0.0 0.00 0.00 0.00 21 1022.4
20260902233820 24 149 0.0 0.0 0.00 0.00 0.00 21 1022.4
20260902233316 24 182 0.0 0.0 0.00 0.00 0.00 20 1022.8
20260902232204 24 187 0.0 0.0 0.00 0.00 0.00 21 1022.4
20260902231657 25 198 0.0 0.0 0.00 0.00 0.00 21 1022.4
20260902231152 25 231 0.0 0.0 0.00 0.00 0.00 21 1022.4
20260902230647 25 140 0.0 0.0 0.00 0.00 0.00 21 1022.4
20260902230140 25 140 0.0 1.6 0.00 0.00 0.00 21 1022.4
20260902225634 25 196 0.0 3.2 0.00 0.00 0.00 21 1022.4
20260902225129 25 306 0.0 3.2 0.00 0.00 0.00 20 1022.8
20260902224622 25 245 0.0 3.2 0.00 0.00 0.00 20 1022.4
20260902224116 25 169 0.0 3.2 0.00 0.00 0.00 20 1022.8
20260902223612 25 56 0.0 1.6 0.00 0.00 0.00 21 1022.4
20260902223105 26 123 0.0 1.6 0.00 0.00 0.00 20 1022.8
20260902222559 25 211 0.0 1.6 0.00 0.00 0.00 14 1022.8
20260902222055 25 324 0.0 1.6 0.00 0.00 0.00 19 1022.8
20260902221547 25 325 0.0 1.6 0.00 0.00 0.00 16 1022.8
20260902221042 25 229 0.0 1.6 0.00 0.00 0.00 18 1023.1
20260902220537 25 25 0.0 1.6 0.00 0.00 0.00 19 1023.1
20260902220530 25 167 0.0 3.2 0.00 0.00 0.00 17 1023.1
20260902215524 25 286 0.0 3.2 0.00 0.00 0.00 20 1023.5
20260902215019 25 63 0.0 3.2 0.00 0.00 0.00 20 1023.5
20260902214513 25 321 0.0 0.0 0.00 0.00 0.00 19 1023.5
20260902214006 25 322 0.0 0.0 0.00 0.00 0.00 18 1023.5
20260902213502 25 125 0.0 1.6 0.00 0.00 0.00 19 1023.5
20260902212955 25 343 0.0 3.2 0.00 0.00 0.00 21 1023.5
20260902212449 25 229 0.0 3.2 0.00 0.00 0.00 20 1023.5
20260902211947 25 23 0.0 1.6 0.00 0.00 0.00 20 1023.5
20260902211940 25 38 0.0 1.6 0.00 0.00 0.00 20 1023.8
20260902210932 24 301 0.0 0.0 0.00 0.00 0.00 20 1023.8
20260902210428 24 287 0.0 0.0 0.00 0.00 0.00 20 1023.8
20260902205920 23 84 0.0 1.6 0.00 0.00 0.00 21 1024.1
20260902205906 23 308 0.0 0.0 0.00 0.00 0.00 24 1023.8
20260902205513 23 117 0.0 0.0 0.00 0.00 0.00 23 1023.8
20260902205010 23 331 0.0 0.0 0.00 0.00 0.00 23 1023.8
20260902203857 23 252 0.0 1.6 0.00 0.00 0.00 25 1023.8
20260902203352 23 289 0.0 1.6 0.00 0.00 0.00 25 1023.8
20260902202845 23 58 0.0 3.2 0.00 0.00 0.00 25 1024.1
20260902202340 23 267 0.0 3.2 0.00 0.00 0.00 23 1024.1
20260902202329 24 83 0.0 0.0 0.00 0.00 0.00 25 1024.1
20260902201935 23 192 0.0 3.2 0.00 0.00 0.00 27 1024.1
20260902200827 25 307 0.0 1.6 0.00 0.00 0.00 22 1024.1
20260902200823 24 333 0.0 1.6 0.00 0.00 0.00 23 1024.1
20260902195810 25 227 0.0 3.2 0.00 0.00 0.00 23 1024.1
20260902195306 25 279 0.0 3.2 0.00 0.00 0.00 24 1024.1
20260902194800 25 14 0.0 1.6 0.00 0.00 0.00 22 1024.1
20260902194253 25 355 0.0 0.0 0.00 0.00 0.00 17 1024.1
20260902193748 25 328 0.0 0.0 0.00 0.00 0.00 18 1024.5
20260902193743 25 27 0.0 0.0 0.00 0.00 0.00 14 1024.1
20260902192737 25 154 0.0 0.0 0.00 0.00 0.00 16 1024.1
20260902192730 24 344 0.0 0.0 0.00 0.00 0.00 18 1024.1
20260902191725 24 130 0.0 0.0 0.00 0.00 0.00 16 1024.5
20260902191218 24 136 0.0 0.0 0.00 0.00 0.00 18 1024.5
20260902190712 23 134 0.0 0.0 0.00 0.00 0.00 21 1024.5
20260902190208 23 332 0.0 0.0 0.00 0.00 0.00 18 1024.5
20260902185700 23 220 0.0 0.0 0.00 0.00 0.00 20 1024.5
20260902185155 23 265 0.0 0.0 0.00 0.00 0.00 20 1024.8
20260902184651 23 274 0.0 0.0 0.00 0.00 0.00 22 1024.5
20260902184143 23 191 0.0 1.6 0.00 0.00 0.00 22 1024.5
20260902183638 23 281 0.0 1.6 0.00 0.00 0.00 20 1024.1
20260902183133 23 220 0.0 0.0 0.00 0.00 0.00 22 1024.5
20260902182626 24 49 0.0 0.0 0.00 0.00 0.00 22 1024.5
20260902182120 24 194 0.0 1.6 0.00 0.00 0.00 22 1024.8
20260902181615 24 234 0.0 1.6 0.00 0.00 0.00 22 1024.5
20260902181108 24 234 0.0 0.0 0.00 0.00 0.00 16 1024.5
20260902180603 24 205 0.0 0.0 0.00 0.00 0.00 15 1024.5
20260902180100 24 226 0.0 0.0 0.00 0.00 0.00 18 1024.1
20260902175552 24 179 0.0 0.0 0.00 0.00 0.00 15 1024.1
20260902175547 23 246 0.0 0.0 0.00 0.00 0.00 17 1024.5
20260902174540 23 181 0.0 0.0 0.00 0.00 0.00 18 1024.5
20260902174034 23 207 0.0 0.0 0.00 0.00 0.00 20 1024.1
20260902174025 23 205 0.0 0.0 0.00 0.00 0.00 14 1024.5
20260902173629 23 152 0.0 0.0 0.00 0.00 0.00 20 1024.1
20260902172515 22 169 0.0 0.0 0.00 0.00 0.00 16 1024.5
20260902172010 22 130 0.0 0.0 0.00 0.00 0.00 21 1024.1
20260902171505 21 225 0.0 0.0 0.00 0.00 0.00 22 1024.1
20260902170959 21 184 0.0 0.0 0.00 0.00 0.00 20 1024.5
20260902170453 21 113 0.0 0.0 0.00 0.00 0.00 20 1024.1
20260902165948 21 157 0.0 0.0 0.00 0.00 0.00 20 1024.1
20260902165443 21 114 0.0 0.0 0.00 0.00 0.00 21 1024.1
20260902165438 21 202 0.0 0.0 0.00 0.00 0.00 22 1024.1
20260902164431 21 138 0.0 0.0 0.00 0.00 0.00 21 1024.1
20260902164424 21 178 0.0 0.0 0.00 0.00 0.00 20 1024.1
20260902163418 20 149 0.0 0.0 0.00 0.00 0.00 19 1024.5
20260902162913 20 177 0.0 0.0 0.00 0.00 0.00 22 1024.1
20260902162407 20 181 0.0 0.0 0.00 0.00 0.00 20 1024.1
20260902161900 19 232 0.0 0.0 0.00 0.00 0.00 22 1024.5
20260902161357 19 195 0.0 0.0 0.00 0.00 0.00 21 1024.1
20260902161351 18 219 0.0 0.0 0.00 0.00 0.00 25 1024.5
20260902160343 18 218 0.0 0.0 0.00 0.00 0.00 27 1024.5
20260902155839 18 154 0.0 0.0 0.00 0.00 0.00 27 1024.1
20260902155332 18 109 0.0 0.0 0.00 0.00 0.00 27 1024.5
20260902154826 17 125 0.0 0.0 0.00 0.00 0.00 29 1024.5
20260902154321 17 223 0.0 0.0 0.00 0.00 0.00 32 1024.5
20260902154315 17 249 0.0 0.0 0.00 0.00 0.00 32 1024.5
20260902153309 17 200 0.0 0.0 0.00 0.00 0.00 31 1024.8
20260902152804 16 172 0.0 0.0 0.00 0.00 0.00 32 1024.5
20260902152258 16 165 0.0 0.0 0.00 0.00 0.00 33 1024.5
20260902151753 16 186 0.0 0.0 0.00 0.00 0.00 32 1024.5
20260902151747 16 193 0.0 0.0 0.00 0.00 0.00 32 1024.1
20260902150740 16 200 0.0 0.0 0.00 0.00 0.00 32 1024.5
20260902150233 16 231 0.0 0.0 0.00 0.00 0.00 32 1024.1
20260902145729 16 206 0.0 0.0 0.00 0.00 0.00 32 1024.1
20260902145222 16 131 0.0 0.0 0.00 0.00 0.00 33 1023.8
20260902144716 16 168 0.0 0.0 0.00 0.00 0.00 33 1023.8
20260902144212 16 201 0.0 0.0 0.00 0.00 0.00 34 1023.8
20260902143704 16 137 0.0 0.0 0.00 0.00 0.00 35 1023.5
20260902143158 16 173 0.0 0.0 0.00 0.00 0.00 35 1023.8
20260902142654 16 193 0.0 0.0 0.00 0.00 0.00 35 1023.8
20260902142147 16 211 0.0 0.0 0.00 0.00 0.00 35 1023.8
20260902141641 16 189 0.0 0.0 0.00 0.00 0.00 36 1024.1
20260902141137 16 182 0.0 0.0 0.00 0.00 0.00 36 1023.8
20260902140631 16 217 0.0 0.0 0.00 0.00 0.00 36 1023.8
20260902140625 16 196 0.0 0.0 0.00 0.00 0.00 36 1023.8
20260902135620 16 208 0.0 0.0 0.00 0.00 0.00 36 1023.5
20260902135112 16 202 0.0 0.0 0.00 0.00 0.00 36 1023.5
20260902135107 16 195 0.0 0.0 0.00 0.00 0.00 36 1023.5
20260902134102 16 211 0.0 0.0 0.00 0.00 0.00 36 1023.8
20260902133558 15 146 0.0 0.0 0.00 0.00 0.00 36 1023.5
20260902133553 15 220 0.0 0.0 0.00 0.00 0.00 36 1023.5
20260902133046 15 218 0.0 0.0 0.00 0.00 0.00 37 1023.5
20260902132038 15 193 0.0 0.0 0.00 0.00 0.00 38 1023.1
20260902131532 15 203 0.0 0.0 0.00 0.00 0.00 38 1023.1
20260902131027 15 203 0.0 0.0 0.00 0.00 0.00 37 1022.8
20260902130520 15 202 0.0 0.0 0.00 0.00 0.00 37 1023.1
20260902130016 15 133 0.0 0.0 0.00 0.00 0.00 38 1023.1
20260902130010 15 188 0.0 0.0 0.00 0.00 0.00 38 1022.8
20260902125003 15 228 0.0 0.0 0.00 0.00 0.00 38 1022.8
20260902124457 15 213 0.0 0.0 0.00 0.00 0.00 38 1022.8
20260902123952 15 213 0.0 0.0 0.00 0.00 0.00 38 1022.8
20260902123445 15 211 0.0 0.0 0.00 0.00 0.00 38 1022.8
20260902122939 15 203 0.0 0.0 0.00 0.00 0.00 38 1022.8
20260902122435 15 201 0.0 0.0 0.00 0.00 0.00 38 1023.1
20260902121928 15 190 0.0 0.0 0.00 0.00 0.00 38 1022.8
20260902121423 15 230 0.0 0.0 0.00 0.00 0.00 38 1023.1
20260902120917 15 187 0.0 0.0 0.00 0.00 0.00 38 1022.8
20260902120411 15 207 0.0 0.0 0.00 0.00 0.00 38 1023.1
20260902115905 15 207 0.0 0.0 0.00 0.00 0.00 38 1023.1
20260902115401 15 219 0.0 0.0 0.00 0.00 0.00 38 1022.8
20260902115354 16 219 0.0 0.0 0.00 0.00 0.00 37 1023.1
20260902114348 16 236 0.0 0.0 0.00 0.00 0.00 37 1023.1
20260902113843 16 218 0.0 0.0 0.00 0.00 0.00 37 1022.8
20260902113336 16 215 0.0 0.0 0.00 0.00 0.00 36 1023.1
20260902112830 16 177 0.0 0.0 0.00 0.00 0.00 35 1023.1
20260902112325 16 120 0.0 0.0 0.00 0.00 0.00 35 1023.5
20260902111818 16 198 0.0 0.0 0.00 0.00 0.00 34 1023.1
20260902111313 16 161 0.0 0.0 0.00 0.00 0.00 34 1023.5
20260902110808 16 220 0.0 0.0 0.00 0.00 0.00 35 1023.5
20260902110301 16 223 0.0 0.0 0.00 0.00 0.00 34 1023.5
20260902105755 16 196 0.0 0.0 0.00 0.00 0.00 34 1023.5
20260902105251 16 203 0.0 0.0 0.00 0.00 0.00 35 1023.8
20260902104745 16 213 0.0 0.0 0.00 0.00 0.00 36 1023.8
20260902104239 16 208 0.0 0.0 0.00 0.00 0.00 36 1023.8
20260902103733 16 208 0.0 0.0 0.00 0.00 0.00 35 1023.8
20260902103226 16 210 0.0 0.0 0.00 0.00 0.00 36 1023.5
20260902102721 16 244 0.0 0.0 0.00 0.00 0.00 36 1023.8
20260902102216 15 235 0.0 0.0 0.00 0.00 0.00 37 1023.8
20260902102209 15 252 0.0 0.0 0.00 0.00 0.00 37 1023.5
20260902101204 15 239 0.0 0.0 0.00 0.00 0.00 38 1023.8
20260902100658 15 218 0.0 0.0 0.00 0.00 0.00 39 1023.8
20260902100151 15 225 0.0 0.0 0.00 0.00 0.00 39 1023.8
20260902095645 15 231 0.0 0.0 0.00 0.00 0.00 39 1023.8
20260902095142 15 216 0.0 0.0 0.00 0.00 0.00 39 1023.8
20260902094634 15 218 0.0 0.0 0.00 0.00 0.00 39 1023.8
20260902094128 15 211 0.0 0.0 0.00 0.00 0.00 39 1023.8
20260902094119 16 242 0.0 0.0 0.00 0.00 0.00 39 1023.5
20260902093725 16 229 0.0 0.0 0.00 0.00 0.00 39 1023.5
20260902092611 16 258 0.0 0.0 0.00 0.00 0.00 39 1023.8
20260902092107 16 217 0.0 0.0 0.00 0.00 0.00 38 1023.8
20260902091600 16 233 0.0 0.0 0.00 0.00 0.00 37 1023.5
20260902091555 16 202 0.0 0.0 0.00 0.00 0.00 36 1023.5
20260902090550 16 202 0.0 0.0 0.00 0.00 0.00 36 1023.5
20260902090544 16 238 0.0 0.0 0.00 0.00 0.00 35 1023.5
20260902085536 16 218 0.0 0.0 0.00 0.00 0.00 36 1023.5
20260902085032 16 226 0.0 0.0 0.00 0.00 0.00 35 1023.5
20260902084525 16 231 0.0 0.0 0.00 0.00 0.00 35 1023.5
20260902084019 16 224 0.0 0.0 0.00 0.00 0.00 35 1023.5
20260902083514 16 234 0.0 0.0 0.00 0.00 0.00 35 1023.1
20260902083007 16 232 0.0 0.0 0.00 0.00 0.00 35 1023.5
20260902082501 16 233 0.0 0.0 0.00 0.00 0.00 35 1023.5
20260902081957 17 250 0.0 0.0 0.00 0.00 0.00 35 1023.5
20260902081450 17 234 0.0 0.0 0.00 0.00 0.00 34 1023.5
20260902080945 17 247 0.0 0.0 0.00 0.00 0.00 33 1023.5
20260902080440 17 206 0.0 0.0 0.00 0.00 0.00 33 1023.5
20260902075939 16 234 0.0 0.0 0.00 0.03 0.00 34 1023.1
20260902075433 16 222 0.0 0.0 0.00 0.03 0.00 33 1023.5
20260902075426 16 219 0.0 0.0 0.00 0.03 0.00 32 1023.5
20260902075028 16 233 0.0 0.0 0.00 0.03 0.00 33 1023.5
20260902073917 16 133 0.0 0.0 0.00 0.03 0.00 31 1023.5
20260902073412 16 338 0.0 0.0 0.00 0.03 0.00 31 1023.1
20260902072907 16 234 0.0 0.0 0.00 0.03 0.00 32 1023.1
20260902072902 16 250 0.0 0.0 0.00 0.03 0.00 32 1023.1